Home   Weather   Rheinfelden (Baden)   Past weeks

Flag for Germany Past Weather in Rheinfelden (Baden), Baden-Württemberg, Germany — Yesterday and Last 2 Weeks

55 °F

Passing clouds.

Feels Like: 55 °F
Forecast: 37 / 59 °F
Wind: 5 mph from North

Location: Bale-Mulhouse

Current Time: Oct 27, 2016 at 5:03:45 PM

Latest Report: Oct 27, 2016 at 4:30 PM

Visibility: N/A

Pressure: 30.51 "Hg

Humidity: 72%

Dew Point: 46 °F

Location of Rheinfelden (Baden)Location

Past Weather in Rheinfelden (Baden) — Graph


Rheinfelden (Baden) Temperature Yesterday

Maximum temperature yesterday: 54 °F (at 12:00 AM)
Minimum temperature yesterday: 50 °F (at 5:30 AM)
Average temperature yesterday: 52 °F

High & Low Weather Summary for the Past Weeks

High66 °F (Oct 15, 5:30 PM)100% (Oct 13, 12:30 AM)30.57 "Hg (Oct 13, 12:30 AM)
Low30 °F (Oct 13, 2:00 AM)51% (Oct 12, 5:00 PM)29.62 "Hg (Oct 14, 5:30 PM)
Average50 °F86%30.06 "Hg
* Reported Oct 12 4:00 PM — Oct 27 4:00 PM, Rheinfelden (Baden), Weather by CustomWeather, © 2016

Note: Actual official high and low records may vary slightly from our data, if they occured in-between our weather recording intervals... More about our weather records


Rheinfelden (Baden) Weather History for the Previous 24 Hours

Scroll right to see more
Time TempWeatherWind HumidityBarometerVisibility
4:00 PM
Thu, Oct 27
55 °FPassing clouds.5 mph72%30.51 "HgN/A
3:30 PM55 °FPassing clouds.5 mph72%30.51 "HgN/A
3:00 PM54 °FPassing clouds.5 mph77%30.51 "HgN/A
2:30 PM52 °FPassing clouds.5 mph88%30.54 "HgN/A
2:00 PM50 °FPartly sunny.3 mph88%30.54 "Hg4 mi
1:30 PM48 °FFog.3 mph94%30.54 "Hg1 mi
1:00 PM48 °FFog.3 mph94%30.57 "Hg1 mi
12:30 PM48 °FFog.3 mph94%30.57 "Hg1 mi
12:00 PM48 °FFog.3 mph94%30.57 "Hg1 mi
11:30 AM46 °FFog.3 mph100%30.57 "Hg1 mi
11:00 AM46 °FFog.3 mph100%30.57 "Hg1 mi
10:30 AM45 °FFog.3 mph100%30.54 "Hg0 mi
10:00 AM45 °FFog.3 mph100%30.54 "Hg0 mi
9:30 AM45 °FFog.5 mph100%30.54 "Hg1 mi
9:00 AM45 °FFog.5 mph100%30.51 "Hg1 mi
8:30 AM46 °FFog.2 mph100%30.51 "Hg1 mi
8:00 AM45 °FFog.3 mph100%30.48 "Hg1 mi
7:30 AM46 °FFog.5 mph100%30.48 "Hg1 mi
7:00 AM46 °FFog.5 mph100%30.48 "Hg1 mi
6:30 AM46 °FFog.5 mph93%30.48 "Hg1 mi
6:00 AM46 °FFog.3 mph100%30.48 "Hg1 mi
5:30 AM46 °FFog.5 mph100%30.45 "Hg1 mi
5:00 AM46 °FFog.6 mph100%30.45 "Hg2 mi
4:30 AM46 °FFog.7 mph100%30.45 "Hg3 mi
4:00 AM46 °FLow clouds.3 mph93%30.45 "Hg4 mi
3:30 AM46 °FMostly cloudy.6 mph93%30.45 "Hg4 mi
3:00 AM46 °FLow clouds.6 mph93%30.45 "Hg4 mi
2:30 AM48 °FMostly cloudy.6 mph94%30.45 "Hg4 mi
2:00 AM48 °FPassing clouds.6 mph94%30.45 "Hg4 mi
1:30 AM50 °FPassing clouds.3 mph88%30.45 "Hg5 mi
12:30 AM50 °FMostly cloudy.6 mph94%30.45 "Hg6 mi
12:00 AM50 °FPartly cloudy.3 mph94%30.42 "Hg4 mi
11:30 PM
Wed, Oct 26
50 °FPartly cloudy.6 mph94%30.42 "Hg4 mi
11:00 PM50 °FPartly cloudy.5 mph94%30.42 "Hg5 mi
10:30 PM50 °FPartly cloudy.6 mph94%30.42 "Hg5 mi
10:00 PM52 °FPassing clouds.6 mph94%30.42 "Hg4 mi
9:30 PM50 °FPassing clouds.6 mph100%30.39 "Hg4 mi
9:00 PM52 °FPassing clouds.5 mph94%30.39 "Hg4 mi
8:30 PM52 °FPartly cloudy.3 mph94%30.39 "Hg4 mi
8:00 PM54 °FPassing clouds.3 mph88%30.39 "Hg4 mi
7:30 PM54 °FPassing clouds.3 mph88%30.36 "Hg5 mi
7:00 PM54 °FMostly cloudy.3 mph94%30.36 "Hg4 mi
6:30 PM54 °FOvercast.3 mph94%30.36 "Hg4 mi
6:00 PM54 °FMore clouds than sun.2 mph94%30.36 "Hg4 mi
5:30 PM54 °FFog.3 mph94%30.33 "Hg3 mi
5:00 PM54 °FFog.3 mph94%30.33 "Hg3 mi
Weather by CustomWeather, © 2016

See weather overviewHow to use our weather pages